Regional Weather Roundup
Issued by NWS Newport/Morehead, NC

Current Version | Previous Version | Graphics & Text | Print | Product List | Glossary On
Versions: 1 2 3 4 5 6 7 8 9 10 11 12 13 14 15 16 17 18 19 20 21 22 23 24 25 26 27 28 29 30 31 32 33 34 35 36 37 38 39 40 41 42 43 44 45 46 47 48 49 50
000 ASUS42 KMHX 212313 RWRMHX WEATHER ROUNDUP FOR EASTERN NORTH CAROLINA NATIONAL WEATHER SERVICE NEWPORT/MOREHEAD CITY NC 600 PM EST TUE FEB 21 2017 NOTE: "FAIR" INDICATES FEW OR NO CLOUDS BELOW 12,000 FEET WITH NO SIGNIFICANT WEATHER AND/OR OBSTRUCTIONS TO VISIBILITY NCZ015>017-031-032-045>047-102-103-220000- NORTH COAST CITY SKY/WX TMP DP RH WIND PRES REMARKS EDENTON CLOUDY 52 44 74 E7 30.19F ELIZABETH CITY CLOUDY 49 42 77 E10 30.21R KITTY HAWK NOT AVBL MANTEO CLEAR 50 46 87 NE7 30.20R $$ NCZ045>047-081-094-103-104-220000- CENTRAL COAST CITY SKY/WX TMP DP RH WIND PRES REMARKS FRISCO CLOUDY 59 51 75 E5 30.17R $$ NCZ095-097-098-100-101-220000- SOUTHERN COAST CITY SKY/WX TMP DP RH WIND PRES REMARKS BEAUFORT CLOUDY 59 50 72 NE6 30.16S CEDAR ISLAND NOT AVBL JACKSONVILLE CLOUDY 62 53 72 E6 30.14S PINEY ISLAND CLOUDY N/A N/A N/A NE10 30.17S HAZE WILMINGTON CLOUDY 60 52 74 E7 30.13S $$ NCZ011>013-027>030-043-044-078>080-089-090>093-098-220000- COASTAL PLAIN CITY SKY/WX TMP DP RH WIND PRES REMARKS AHOSKIE N/A 56 45 64 SE3 30.18S CLINTON PTCLDY 61 46 59 CALM 30.13S ELIZABETHTOWN CLOUDY 64 47 52 CALM 30.12S GOLDSBORO CLOUDY 62 49 62 E3 30.12S GREENVILLE CLOUDY 61 48 63 SE5 30.16F HAVELOCK CLOUDY 56 49 77 NE6 30.17R KENANSVILLE NOT AVBL KINSTON MOCLDY 63 50 63 SE5 30.15S NEW BERN MOCLDY 58 49 72 E6 30.18R RICHLANDS CLOUDY 62 52 69 E6 30.14F ROCKY MOUNT MOCLDY 58 48 69 CALM 30.15S WASHINGTON MOCLDY 59 48 66 E5 30.17R WHITEVILLE PTCLDY 66 52 60 SE3 30.11S $$ AMZ130-135-150-152-154-156-158-170-250-252-270-ANZ085-086-088-633-658-670-220000- MARINE OBSERVATIONS STATION/POSITION TIME TEMP WIND PRES WAVE SWELL AIR SEA DIR/SP/G HT/PER HT/PER (UTC) (F) (DEG/KT/KT) (MB) (FT/S) (FT/S) CHESAPEAKE LIGHT NOT AVBL 64 E VA BEACH 2250 52 53 60/ 12/ 16 1022.2 4/ 7 3/ 7 DUCK 2248 49 49 60/ 9/ 10 1022.0 2 E DUCK 2300 49 N/A 3/ 7 OREGON INLET 2248 30/ 6/ 9 1022.1 13E OREGON INLT NOT AVBL HATTERAS CG 2248 57 58 20/ 5/ 7 1021.4 DIAMOND BUOY 2250 63 75 130/ 10/ 12 1021.7 4/ 9 5/ 9 CAPE LOOKOUT 2300 57 30/ 11/ 12 1021.0 BEAUFORT LAB 2248 59 54 40/ 5/ 7 1020.4 30 SE NEW RVR IN 2208 62 60/ 12/ 14 1020.6 30 SE NEW RVR IN 2243 69 N/A 3/ 7 27 SE WRIGHTSVLE 2208 63 64 60/ 12/ 14 1019.8 5 SE WRIGHTSVLE 2208 58 56 80/ 10/ 16 1020.2 225 S CAPE HAT 2250 65 71 70/ 12/ 16 1020.4 5/ 7 3/ 7 41 SE CHARLESTON 2250 70 69 100/ 16/ 19 1017.5 4/ 6 2/11 $$

USA.gov is the U.S. government's official web portal to all federal, state and local government web resources and services.